Time,TemperatureF,DewpointF,PressureIn,WindDirection,WindDirectionDegrees,WindSpeedMPH,WindSpeedGustMPH,Humidity,HourlyPrecipIn,Conditions,Clouds,dailyrainin,SoftwareType,DateUTC
2013-02-26 00:01:00,34.0,22.0,30.14,East,92,2.0,5.0,60,0.00,,,0.00,,2013-02-26 05:01:00,
2013-02-26 00:12:00,34.0,22.0,30.14,East,92,2.0,5.0,60,0.00,,,0.00,,2013-02-26 05:12:00,
2013-02-26 00:22:00,34.0,21.0,30.16,East,92,0.0,2.0,59,0.00,,,0.00,,2013-02-26 05:22:00,
2013-02-26 00:32:00,34.0,21.0,30.16,East,93,0.0,4.0,59,0.00,,,0.00,,2013-02-26 05:32:00,
2013-02-26 00:43:00,34.0,21.0,30.16,East,93,0.0,4.0,59,0.00,,,0.00,,2013-02-26 05:43:00,
2013-02-26 00:52:00,34.0,22.0,30.15,East,92,0.0,2.0,61,0.00,,,0.00,,2013-02-26 05:52:00,
2013-02-26 01:02:00,34.0,22.0,30.16,East,92,0.0,1.0,61,0.00,,,0.00,,2013-02-26 06:02:00,
2013-02-26 01:11:00,34.0,22.0,30.16,East,92,0.0,1.0,61,0.00,,,0.00,,2013-02-26 06:11:00,
2013-02-26 01:21:00,34.0,22.0,30.16,East,92,1.0,4.0,61,0.00,,,0.00,,2013-02-26 06:21:00,
2013-02-26 01:32:00,34.0,21.0,30.16,East,92,1.0,4.0,59,0.00,,,0.00,,2013-02-26 06:32:00,
2013-02-26 01:42:00,34.0,21.0,30.16,East,92,1.0,4.0,59,0.00,,,0.00,,2013-02-26 06:42:00,
2013-02-26 01:52:00,34.0,21.0,30.15,East,92,0.0,2.0,59,0.00,,,0.00,,2013-02-26 06:52:00,
2013-02-26 02:01:00,34.0,22.0,30.14,East,92,1.0,4.0,62,0.00,,,0.00,,2013-02-26 07:01:00,
2013-02-26 02:11:00,34.0,22.0,30.14,East,92,1.0,4.0,62,0.00,,,0.00,,2013-02-26 07:11:00,
2013-02-26 02:22:00,33.0,22.0,30.14,East,92,0.0,2.0,64,0.00,,,0.00,,2013-02-26 07:22:00,
2013-02-26 02:32:00,33.0,21.0,30.13,East,92,1.0,2.0,61,0.00,,,0.00,,2013-02-26 07:32:00,
2013-02-26 02:42:00,33.0,21.0,30.13,East,92,1.0,2.0,61,0.00,,,0.00,,2013-02-26 07:42:00,
2013-02-26 02:52:00,33.0,21.0,30.13,East,92,2.0,4.0,60,0.00,,,0.00,,2013-02-26 07:52:00,
2013-02-26 03:02:00,33.0,23.0,30.12,East,92,0.0,4.0,65,0.00,,,0.00,,2013-02-26 08:02:00,
2013-02-26 03:11:00,33.0,23.0,30.12,East,92,0.0,4.0,65,0.00,,,0.00,,2013-02-26 08:11:00,
2013-02-26 03:21:00,33.0,21.0,30.12,East,92,1.0,2.0,62,0.00,,,0.00,,2013-02-26 08:21:00,
2013-02-26 03:32:00,33.0,21.0,30.12,East,92,0.0,2.0,62,0.00,,,0.00,,2013-02-26 08:32:00,
2013-02-26 03:42:00,33.0,21.0,30.12,East,92,0.0,2.0,62,0.00,,,0.00,,2013-02-26 08:42:00,
2013-02-26 03:52:00,34.0,22.0,30.10,East,92,1.0,4.0,61,0.00,,,0.00,,2013-02-26 08:52:00,
2013-02-26 04:02:00,34.0,22.0,30.09,East,90,0.0,2.0,62,0.00,,,0.00,,2013-02-26 09:02:00,
2013-02-26 04:11:00,34.0,22.0,30.09,East,90,0.0,2.0,62,0.00,,,0.00,,2013-02-26 09:11:00,
2013-02-26 04:21:00,34.0,22.0,30.11,East,90,1.0,2.0,61,0.00,,,0.00,,2013-02-26 09:21:00,
2013-02-26 04:32:00,34.0,23.0,30.10,ENE,76,0.0,2.0,63,0.00,,,0.00,,2013-02-26 09:32:00,
2013-02-26 04:43:00,34.0,23.0,30.10,ENE,76,0.0,2.0,63,0.00,,,0.00,,2013-02-26 09:43:00,
2013-02-26 04:52:00,34.0,23.0,30.09,NE,46,0.0,3.0,63,0.00,,,0.00,,2013-02-26 09:52:00,
2013-02-26 05:01:00,34.0,22.0,30.09,NE,46,0.0,1.0,62,0.00,,,0.00,,2013-02-26 10:01:00,
2013-02-26 05:11:00,34.0,22.0,30.09,NE,46,0.0,1.0,62,0.00,,,0.00,,2013-02-26 10:11:00,
2013-02-26 05:21:00,35.0,23.0,30.10,NE,49,2.0,3.0,60,0.00,,,0.00,,2013-02-26 10:21:00,
2013-02-26 05:32:00,35.0,22.0,30.10,SE,136,5.0,7.0,58,0.00,,,0.00,,2013-02-26 10:32:00,
2013-02-26 05:42:00,35.0,22.0,30.10,SE,136,5.0,7.0,58,0.00,,,0.00,,2013-02-26 10:42:00,
2013-02-26 05:52:00,35.0,22.0,30.11,SE,133,4.0,9.0,58,0.00,,,0.00,,2013-02-26 10:52:00,
2013-02-26 06:01:00,35.0,22.0,30.09,SSE,147,3.0,6.0,59,0.00,,,0.00,,2013-02-26 11:01:00,
2013-02-26 06:12:00,35.0,22.0,30.09,SSE,147,3.0,6.0,59,0.00,,,0.00,,2013-02-26 11:12:00,
2013-02-26 06:22:00,35.0,23.0,30.09,SE,136,3.0,6.0,60,0.00,,,0.00,,2013-02-26 11:22:00,
2013-02-26 06:32:00,35.0,23.0,30.10,SE,132,4.0,11.0,60,0.00,,,0.00,,2013-02-26 11:32:00,
2013-02-26 06:42:00,35.0,23.0,30.10,SE,132,4.0,11.0,60,0.00,,,0.00,,2013-02-26 11:42:00,
2013-02-26 06:53:00,35.0,23.0,30.08,ESE,119,4.0,8.0,60,0.00,,,0.00,,2013-02-26 11:53:00,
2013-02-26 07:02:00,35.0,23.0,30.08,SE,134,3.0,7.0,61,0.00,,,0.00,,2013-02-26 12:02:00,
2013-02-26 07:11:00,35.0,23.0,30.08,SE,134,3.0,7.0,61,0.00,,,0.00,,2013-02-26 12:11:00,
2013-02-26 07:22:00,35.0,23.0,30.08,ESE,111,2.0,7.0,62,0.00,,,0.00,,2013-02-26 12:22:00,
2013-02-26 07:32:00,35.0,23.0,30.07,East,83,2.0,5.0,62,0.00,,,0.00,,2013-02-26 12:32:00,
2013-02-26 07:42:00,35.0,23.0,30.07,East,83,2.0,5.0,62,0.00,,,0.00,,2013-02-26 12:42:00,
2013-02-26 07:53:00,35.0,23.0,30.07,East,92,2.0,5.0,61,0.00,,,0.00,,2013-02-26 12:53:00,
2013-02-26 08:02:00,35.0,23.0,30.07,SE,131,2.0,4.0,61,0.00,,,0.00,,2013-02-26 13:02:00,
2013-02-26 08:11:00,35.0,23.0,30.07,SE,131,2.0,4.0,61,0.00,,,0.00,,2013-02-26 13:11:00,
2013-02-26 08:22:00,35.0,23.0,30.07,SE,131,2.0,6.0,61,0.00,,,0.00,,2013-02-26 13:22:00,
2013-02-26 08:32:00,35.0,24.0,30.07,East,87,4.0,6.0,63,0.00,,,0.00,,2013-02-26 13:32:00,
2013-02-26 08:42:00,35.0,24.0,30.07,East,87,4.0,6.0,63,0.00,,,0.00,,2013-02-26 13:42:00,
2013-02-26 08:52:00,35.0,26.0,30.07,SE,126,3.0,11.0,69,0.01,,,0.01,,2013-02-26 13:52:00,
2013-02-26 09:01:00,35.0,27.0,30.06,SE,130,4.0,8.0,73,0.02,,,0.02,,2013-02-26 14:01:00,
2013-02-26 09:11:00,35.0,27.0,30.06,SE,130,4.0,8.0,73,0.02,,,0.02,,2013-02-26 14:11:00,
2013-02-26 09:22:00,34.0,27.0,30.04,SE,130,2.0,6.0,76,0.03,,,0.03,,2013-02-26 14:22:00,
2013-02-26 09:32:00,34.0,28.0,30.03,SE,125,3.0,10.0,78,0.05,,,0.05,,2013-02-26 14:32:00,
2013-02-26 09:42:00,34.0,28.0,30.03,SE,125,3.0,10.0,78,0.05,,,0.05,,2013-02-26 14:42:00,
2013-02-26 09:52:00,34.0,28.0,30.03,ESE,105,2.0,9.0,80,0.05,,,0.06,,2013-02-26 14:52:00,
2013-02-26 10:02:00,34.0,29.0,30.02,ESE,121,2.0,7.0,81,0.06,,,0.08,,2013-02-26 15:02:00,
2013-02-26 10:11:00,34.0,29.0,30.02,ESE,121,2.0,7.0,81,0.06,,,0.08,,2013-02-26 15:11:00,
2013-02-26 10:22:00,34.0,29.0,30.02,East,82,4.0,6.0,82,0.08,,,0.11,,2013-02-26 15:22:00,
2013-02-26 10:32:00,34.0,29.0,30.00,East,88,4.0,8.0,83,0.09,,,0.14,,2013-02-26 15:32:00,
2013-02-26 10:42:00,34.0,29.0,30.00,East,88,4.0,8.0,83,0.09,,,0.14,,2013-02-26 15:42:00,
2013-02-26 10:52:00,34.0,30.0,29.99,East,92,4.0,8.0,85,0.11,,,0.17,,2013-02-26 15:52:00,
2013-02-26 11:01:00,34.0,30.0,29.98,ENE,62,2.0,6.0,86,0.11,,,0.19,,2013-02-26 16:01:00,
2013-02-26 11:11:00,34.0,30.0,29.98,ENE,62,2.0,6.0,86,0.11,,,0.19,,2013-02-26 16:11:00,
2013-02-26 11:22:00,34.0,31.0,29.96,North,351,0.0,4.0,87,0.10,,,0.21,,2013-02-26 16:22:00,
2013-02-26 11:32:00,35.0,32.0,29.94,North,355,0.0,2.0,88,0.09,,,0.23,,2013-02-26 16:32:00,
2013-02-26 11:42:00,35.0,32.0,29.94,North,355,0.0,2.0,88,0.09,,,0.23,,2013-02-26 16:42:00,
2013-02-26 11:52:00,35.0,32.0,29.93,NW,319,0.0,3.0,88,0.08,,,0.25,,2013-02-26 16:52:00,
2013-02-26 12:01:00,35.0,32.0,29.91,NW,319,0.0,3.0,89,0.08,,,0.27,,2013-02-26 17:01:00,
2013-02-26 12:11:00,35.0,32.0,29.91,NW,319,0.0,3.0,89,0.08,,,0.27,,2013-02-26 17:11:00,
2013-02-26 12:22:00,35.0,32.0,29.89,West,279,3.0,5.0,90,0.10,,,0.31,,2013-02-26 17:22:00,
2013-02-26 12:32:00,35.0,33.0,29.88,SW,232,1.0,6.0,91,0.13,,,0.36,,2013-02-26 17:32:00,
2013-02-26 12:42:00,35.0,33.0,29.88,SW,232,1.0,6.0,91,0.13,,,0.36,,2013-02-26 17:42:00,
2013-02-26 12:52:00,35.0,33.0,29.88,SW,234,0.0,3.0,92,0.16,,,0.41,,2013-02-26 17:52:00,
2013-02-26 13:02:00,35.0,33.0,29.87,SSW,207,1.0,3.0,91,0.19,,,0.46,,2013-02-26 18:02:00,
2013-02-26 13:12:00,35.0,33.0,29.87,SSW,207,1.0,3.0,91,0.19,,,0.46,,2013-02-26 18:12:00,
2013-02-26 13:21:00,35.0,33.0,29.85,SSW,207,0.0,4.0,91,0.19,,,0.50,,2013-02-26 18:21:00,
2013-02-26 13:32:00,35.0,33.0,29.84,SSW,209,0.0,4.0,91,0.19,,,0.55,,2013-02-26 18:32:00,
2013-02-26 13:42:00,35.0,33.0,29.84,SSW,209,0.0,4.0,91,0.19,,,0.55,,2013-02-26 18:42:00,
2013-02-26 13:53:00,36.0,34.0,29.82,NE,42,0.0,3.0,92,0.19,,,0.60,,2013-02-26 18:53:00,
2013-02-26 14:01:00,36.0,34.0,29.80,NW,307,1.0,3.0,93,0.19,,,0.65,,2013-02-26 19:01:00,
2013-02-26 14:11:00,36.0,34.0,29.80,NW,307,1.0,3.0,93,0.19,,,0.65,,2013-02-26 19:11:00,
2013-02-26 14:22:00,38.0,36.0,29.78,SE,128,4.0,12.0,93,0.17,,,0.67,,2013-02-26 19:22:00,
2013-02-26 14:32:00,38.0,36.0,29.77,SE,136,7.0,13.0,92,0.14,,,0.69,,2013-02-26 19:32:00,
2013-02-26 14:42:00,38.0,36.0,29.77,SE,136,7.0,13.0,92,0.14,,,0.69,,2013-02-26 19:42:00,
2013-02-26 14:52:00,38.0,36.0,29.75,SE,128,3.0,9.0,92,0.12,,,0.72,,2013-02-26 19:52:00,
2013-02-26 15:01:00,38.0,36.0,29.74,ESE,105,6.0,9.0,92,0.10,,,0.74,,2013-02-26 20:01:00,
2013-02-26 15:11:00,38.0,36.0,29.74,ESE,105,6.0,9.0,92,0.10,,,0.74,,2013-02-26 20:11:00,
2013-02-26 15:22:00,39.0,37.0,29.72,SE,126,6.0,11.0,92,0.09,,,0.76,,2013-02-26 20:22:00,
2013-02-26 15:32:00,39.0,37.0,29.70,ENE,77,8.0,14.0,91,0.08,,,0.77,,2013-02-26 20:32:00,
2013-02-26 15:41:00,39.0,37.0,29.70,ENE,77,8.0,14.0,91,0.08,,,0.77,,2013-02-26 20:41:00,
2013-02-26 15:52:00,39.0,37.0,29.68,ESE,105,5.0,11.0,91,0.07,,,0.79,,2013-02-26 20:52:00,
2013-02-26 16:01:00,39.0,37.0,29.67,SE,127,7.0,15.0,91,0.10,,,0.84,,2013-02-26 21:01:00,
2013-02-26 16:11:00,39.0,37.0,29.67,SE,127,7.0,15.0,91,0.10,,,0.84,,2013-02-26 21:11:00,
2013-02-26 16:21:00,39.0,37.0,29.67,East,94,5.0,14.0,92,0.14,,,0.89,,2013-02-26 21:21:00,
2013-02-26 16:31:00,39.0,37.0,29.65,North,5,3.0,8.0,92,0.17,,,0.94,,2013-02-26 21:31:00,
2013-02-26 16:41:00,39.0,37.0,29.65,North,5,3.0,8.0,92,0.17,,,0.94,,2013-02-26 21:41:00,
2013-02-26 16:51:00,39.0,37.0,29.67,SSE,158,4.0,8.0,93,0.20,,,0.99,,2013-02-26 21:51:00,
2013-02-26 17:01:00,39.0,37.0,29.67,ESE,111,2.0,6.0,93,0.19,,,1.03,,2013-02-26 22:01:00,
2013-02-26 17:11:00,39.0,37.0,29.67,South,185,4.0,6.0,93,0.20,,,1.09,,2013-02-26 22:11:00,
2013-02-26 17:21:00,39.0,37.0,29.67,South,185,4.0,6.0,93,0.20,,,1.09,,2013-02-26 22:21:00,
2013-02-26 17:32:00,39.0,37.0,29.66,South,176,1.0,8.0,93,0.19,,,1.13,,2013-02-26 22:32:00,
2013-02-26 17:42:00,39.0,37.0,29.66,South,176,1.0,8.0,93,0.19,,,1.13,,2013-02-26 22:42:00,
2013-02-26 17:52:00,39.0,37.0,29.65,SSE,161,2.0,6.0,93,0.16,,,1.15,,2013-02-26 22:52:00,
2013-02-26 18:01:00,40.0,38.0,29.65,SSE,163,1.0,4.0,93,0.13,,,1.16,,2013-02-26 23:01:00,
2013-02-26 18:11:00,40.0,38.0,29.65,SSE,163,1.0,4.0,93,0.13,,,1.16,,2013-02-26 23:11:00,
2013-02-26 18:21:00,40.0,38.0,29.65,SSE,163,0.0,4.0,94,0.07,,,1.16,,2013-02-26 23:21:00,
2013-02-26 18:32:00,40.0,38.0,29.64,SSE,163,0.0,1.0,93,0.04,,,1.17,,2013-02-26 23:32:00,
2013-02-26 18:42:00,40.0,38.0,29.64,SSE,163,0.0,1.0,93,0.04,,,1.17,,2013-02-26 23:42:00,
2013-02-26 18:52:00,40.0,38.0,29.64,WNW,300,2.0,3.0,94,0.02,,,1.17,,2013-02-26 23:52:00,
2013-02-26 19:01:00,40.0,38.0,29.63,West,277,2.0,4.0,93,0.01,,,1.17,,2013-02-27 00:01:00,
2013-02-26 19:11:00,40.0,38.0,29.63,West,277,2.0,4.0,93,0.01,,,1.17,,2013-02-27 00:11:00,
2013-02-26 19:22:00,40.0,38.0,29.64,West,260,3.0,5.0,93,0.01,,,1.17,,2013-02-27 00:22:00,
2013-02-26 19:32:00,40.0,38.0,29.65,SW,230,2.0,8.0,93,0.00,,,1.17,,2013-02-27 00:32:00,
2013-02-26 19:42:00,40.0,38.0,29.65,SW,230,2.0,8.0,93,0.00,,,1.17,,2013-02-27 00:42:00,
2013-02-26 19:52:00,40.0,38.0,29.64,SW,227,2.0,4.0,93,0.01,,,1.18,,2013-02-27 00:52:00,
2013-02-26 20:01:00,40.0,38.0,29.63,SW,227,0.0,4.0,94,0.01,,,1.18,,2013-02-27 01:01:00,
2013-02-26 20:11:00,40.0,38.0,29.63,SW,227,0.0,4.0,94,0.01,,,1.18,,2013-02-27 01:11:00,
2013-02-26 20:22:00,40.0,38.0,29.63,SSW,210,2.0,4.0,94,0.01,,,1.18,,2013-02-27 01:22:00,
2013-02-26 20:32:00,40.0,38.0,29.64,SW,221,3.0,5.0,94,0.01,,,1.18,,2013-02-27 01:32:00,
2013-02-26 20:42:00,40.0,38.0,29.64,SW,221,3.0,5.0,94,0.01,,,1.18,,2013-02-27 01:42:00,
2013-02-26 20:52:00,40.0,38.0,29.64,SW,227,1.0,5.0,94,0.00,,,1.18,,2013-02-27 01:52:00,
2013-02-26 21:01:00,40.0,38.0,29.64,SW,230,2.0,4.0,94,0.00,,,1.18,,2013-02-27 02:01:00,
2013-02-26 21:15:00,40.0,38.0,29.64,SW,230,2.0,4.0,94,0.00,,,1.18,,2013-02-27 02:15:00,
2013-02-26 21:24:00,40.0,38.0,29.64,SW,230,1.0,3.0,94,0.00,,,1.18,,2013-02-27 02:24:00,
2013-02-26 21:32:00,40.0,38.0,29.64,SW,229,0.0,4.0,94,0.00,,,1.18,,2013-02-27 02:32:00,
2013-02-26 21:42:00,40.0,38.0,29.64,SW,229,0.0,4.0,94,0.00,,,1.18,,2013-02-27 02:42:00,
2013-02-26 21:52:00,40.0,38.0,29.64,SW,224,1.0,3.0,94,0.00,,,1.18,,2013-02-27 02:52:00,
2013-02-26 22:02:00,41.0,39.0,29.64,SW,224,0.0,2.0,94,0.00,,,1.18,,2013-02-27 03:02:00,
2013-02-26 22:11:00,41.0,39.0,29.64,SW,224,0.0,2.0,94,0.00,,,1.18,,2013-02-27 03:11:00,
2013-02-26 22:22:00,41.0,39.0,29.63,SW,225,0.0,3.0,94,0.00,,,1.18,,2013-02-27 03:22:00,
2013-02-26 22:32:00,41.0,39.0,29.63,SW,225,0.0,2.0,94,0.00,,,1.18,,2013-02-27 03:32:00,
2013-02-26 22:42:00,41.0,39.0,29.63,SW,225,0.0,2.0,94,0.00,,,1.18,,2013-02-27 03:42:00,
2013-02-26 22:52:00,41.0,39.0,29.64,WSW,241,3.0,5.0,94,0.00,,,1.18,,2013-02-27 03:52:00,
2013-02-26 23:01:00,41.0,39.0,29.64,SW,216,2.0,5.0,94,0.01,,,1.19,,2013-02-27 04:01:00,
2013-02-26 23:11:00,41.0,39.0,29.64,SW,216,2.0,5.0,94,0.01,,,1.19,,2013-02-27 04:11:00,
2013-02-26 23:22:00,41.0,39.0,29.63,SW,216,2.0,4.0,94,0.01,,,1.19,,2013-02-27 04:22:00,
2013-02-26 23:32:00,41.0,39.0,29.62,SW,216,0.0,3.0,94,0.01,,,1.19,,2013-02-27 04:32:00,
2013-02-26 23:42:00,41.0,39.0,29.62,SW,216,0.0,3.0,94,0.01,,,1.19,,2013-02-27 04:42:00,
2013-02-26 23:52:00,41.0,39.0,29.62,SW,217,2.0,4.0,94,0.01,,,1.19,,2013-02-27 04:52:00,